Flag for Israel Weather past 2 weeks in Hadera, Israel

Now
84 °F

Passing clouds.


Feels Like: 91 °F
Forecast: 80 / 90 °F
Wind: 7 mph from Northwest

Location: Dov Airport

Current Time: Sep 2, 2015 at 10:49:28 PM

Latest Report: Sep 2, 2015 at 9:50 PM


Visibility: N/A

Pressure: 29.86 "Hg

Humidity: 70%

Dew point: 73 °F

Location of HaderaLocation

Historic Weather in Hadera — Graph

°F

Hadera temperature yesterday

Maximum temperature yesterday: 88 °F (at 10:50 AM)
Minimum temperature yesterday: 79 °F (at 5:50 AM)
Average temperature yesterday: 85 °F

Past Weeks' High & Low Weather Summary

 TemperatureHumidityPressure
High90 °F (Aug 20, 2:50 PM)79% (Aug 18, 9:50 PM)29.89 "Hg (Aug 18, 9:50 PM)
Low77 °F (Aug 26, 4:50 AM)49% (Aug 25, 12:50 PM)29.71 "Hg (Aug 22, 4:50 PM)
Average85 °F66%29.80 "Hg
* Reported Aug 18 9:50 PM — Sep 2 9:50 PM, Hadera, Weather by CustomWeather, © 2015

Note: Actual official high and low records may vary slightly from our data, if they occured in-between our weather recording intervals... More about our weather records

Advertising

Hadera weather history for previous 24 hours

 ConditionsComfort  
Time TempWeatherWind HumidityBarometerVisibility
9:50 PM
Wed, Sep 2
84 °FPassing clouds.7 mph70%29.86 "HgN/A
8:50 PM84 °FPassing clouds.5 mph70%29.83 "HgN/A
7:50 PM84 °FScattered clouds.8 mph74%29.83 "HgN/A
6:50 PM84 °FScattered clouds.9 mph74%29.80 "HgN/A
5:50 PM86 °FSunny.10 mph70%29.80 "Hg10 mi
4:50 PM86 °FSunny.10 mph70%29.80 "Hg10 mi
3:50 PM88 °FSunny.12 mph66%29.80 "Hg10 mi
2:50 PM88 °FSunny.12 mph62%29.83 "Hg10 mi
1:50 PM88 °FSunny.10 mph62%29.83 "Hg10 mi
12:50 PM88 °FSunny.10 mph62%29.83 "Hg10 mi
11:50 AM86 °FPassing clouds.9 mph66%29.86 "HgN/A
10:50 AM86 °FPassing clouds.8 mph66%29.86 "HgN/A
9:50 AM84 °FScattered clouds.6 mph70%29.86 "HgN/A
8:50 AM84 °FScattered clouds.2 mph70%29.83 "HgN/A
7:50 AM81 °FPassing clouds.5 mph74%29.83 "HgN/A
6:50 AM79 °FPassing clouds.3 mph79%29.83 "HgN/A
5:50 AM79 °FPassing clouds.5 mph79%29.83 "HgN/A
10:50 PM
Tue, Sep 1
82 °FClear.2 mph74%29.83 "Hg10 mi
Weather by CustomWeather, © 2015

See weather overviewHow to use our weather pages